Simultaneous Nadir Overpasses (SNOs) Predictions

Prediction of SNOs between FY3D and AQUA Satellite Orbit:

Table of predicted SNOs for the next 14.0 days since TLE Epoch: 5/24/2025
Index Date (FY3D) Time (FY3D) Lat,Lon (FY3D) SZA (FY3D ) Date (AQUA) Time (AQUA) Lat,Lon (AQUA) SZA (AQUA ) Distance(km) Time Diff (sec)
1 05/25/2025 21:19:22 79.65,-153.24 58.75 05/25/2025 21:20:25 79.64,-153.12 58.73 2.64 63
2 05/25/2025 22:09:58 -79.39, 16.45 121.61 05/25/2025 22:09:36 -79.40, 16.35 121.59 2.36 22
3 05/28/2025 07:40:46 -79.53,-127.36 121.83 05/28/2025 07:40:46 -79.52,-127.25 121.83 2.21 0
4 05/30/2025 17:11:28 -79.48, 90.46 122.25 05/30/2025 17:11:51 -79.48, 90.32 122.24 2.97 23
5 05/30/2025 18:02:08 79.32,-100.90 57.55 05/30/2025 18:01:05 79.32,-100.85 57.55 1.13 63
6 06/02/2025 02:42:16 -79.61, -53.41 122.39 06/02/2025 02:43:00 -79.61, -53.34 122.41 1.46 44
7 06/02/2025 03:32:52 79.34, 116.32 57.25 06/02/2025 03:32:11 79.34, 116.28 57.26 0.88 41
8 06/04/2025 12:13:01 -79.66, 163.52 122.61 06/04/2025 12:14:06 -79.65, 163.64 122.64 2.57 65
9 06/04/2025 13:03:38 79.43, -27.03 57.07 06/04/2025 13:03:18 79.43, -27.02 57.07 0.27 20



Historial Predications of SNOs between FY3D and AQUA
